Location: Unspecified
(0.0000°N, 0.0000°E)
Time: 00:06:22
(UTC+01:00)

Vanguard 1 Rocket - Visible Passes

Search period start: 20 January 2018 00:00
Search period end: 30 January 2018 00:00
Orbit: 656 x 4222 km, 34.3° (Epoch: 18 January)

Date Brightness Start Highest point End Pass type
(mag) Time Alt. Az. Time Alt. Az. Time Alt. Az.
20 Jan 10.7 02:24:38 10° SW 02:50:11 54° SSE 03:08:48 10° ENE visible
20 Jan 9.8 04:58:16 10° WSW 05:22:39 70° NW 05:36:11 10° NE visible
20 Jan 11.3 20:08:01 10° SW 20:15:52 18° S 20:27:11 10° SSE visible
20 Jan 11.6 22:40:39 10° SSW 22:54:16 20° SSE 23:10:58 10° SE visible
21 Jan 11.1 01:10:39 10° SW 01:33:48 40° SSE 01:54:17 10° E visible
21 Jan 10.1 03:42:07 10° SW 04:08:37 85° SE 04:24:58 10° NE visible
21 Jan 10.0 06:20:01 10° WSW 06:38:27 36° NW 06:49:15 10° NNE visible
21 Jan 11.5 21:27:16 10° SSW 21:36:49 17° S 21:49:18 10° SE visible
21 Jan 11.4 23:57:20 10° SSW 00:16:42 30° SSE 00:37:15 10° E visible
22 Jan 10.5 02:27:12 10° SW 02:53:27 64° SE 03:12:36 10° ENE visible
22 Jan 9.9 05:01:35 10° WSW 05:25:25 58° NW 05:39:11 10° NE visible
22 Jan 11.4 20:13:47 10° SW 20:20:38 15° S 20:29:48 10° SSE visible
22 Jan 11.5 22:44:34 10° SSW 22:59:13 22° SSE 23:17:06 10° ESE visible
23 Jan 10.9 01:13:19 10° SW 01:37:24 48° SSE 01:58:40 10° ENE visible
23 Jan 10.0 03:44:57 10° SW 04:11:28 82° NW 04:28:11 10° NE visible
23 Jan 10.3 06:24:45 10° W 06:41:29 29° NW 06:51:56 10° NNE visible
23 Jan 11.5 21:32:06 10° SSW 21:41:56 16° SSE 21:54:36 10° SE visible
24 Jan 11.2 00:00:17 10° SSW 00:20:46 35° SSE 00:42:27 10° E visible
24 Jan 10.3 02:29:50 10° SW 02:58:06 74° ESE 03:16:08 10° ENE visible
24 Jan 10.1 05:15:50 28° W 05:28:13 47° NW 05:42:04 10° NNE visible
24 Jan 11.4 20:19:41 10° SSW 20:25:34 13° S 20:32:57 10° SSE visible
24 Jan 11.4 22:47:57 10° SSW 23:03:48 25° SSE 23:16:33 18° ESE visible
25 Jan 10.9 01:15:57 10° SW 01:54:10 32° E 02:02:40 10° ENE visible
25 Jan 10.0 03:48:03 10° WSW 04:14:13 69° NW 04:31:14 10° NE visible
25 Jan 10.5 06:30:09 10° W 06:44:46 23° NW 06:54:31 10° N visible
25 Jan 11.4 21:36:13 10° SSW 21:46:54 18° SSE 22:00:44 10° SE visible
26 Jan 11.0 00:03:05 10° SSW 00:49:05 - E 00:23:53 42° SSE visible
26 Jan 10.4 02:32:37 10° SW 03:06:33 58° NE 03:19:25 10° NE visible
26 Jan 10.3 05:24:00 33° WNW 05:31:08 39° NW 05:44:51 10° NNE visible
26 Jan 11.4 20:25:07 10° SSW 20:30:33 12° S 20:37:09 10° SSE visible
26 Jan 11.2 22:51:00 10° SSW 23:07:59 30° SSE 23:14:43 27° SE visible
27 Jan 10.9 01:18:38 10° SW 02:00:51 25° ENE 02:06:20 10° ENE visible
27 Jan 10.2 04:18:16 58° NNW 04:18:16 58° NNW 04:34:09 10° NE visible
27 Jan 10.6 06:36:17 10° WNW 06:48:22 18° NW 06:57:00 10° N visible
27 Jan 11.3 21:39:43 10° SSW 21:51:34 20° SSE 22:05:53 11° ESE visible
28 Jan 10.8 00:05:48 10° SW 00:54:47 - ENE 00:23:01 47° SSE visible
28 Jan 10.5 02:35:36 10° SW 03:12:11 46° NE 03:22:31 10° NE visible
28 Jan 10.5 05:29:34 29° WNW 05:34:16 32° NW 05:47:35 10° NNE visible
28 Jan 11.4 20:29:30 10° S 20:35:29 13° SSE 20:42:50 10° SE visible
28 Jan 11.0 22:53:53 10° SSW 23:11:44 35° SSE 23:14:26 34° SE visible
29 Jan 11.1 01:21:25 10° SW 02:05:50 21° ENE 02:09:43 10° ENE visible
29 Jan 10.4 04:23:11 46° NNW 04:23:11 46° NNW 04:36:59 10° NNE visible
29 Jan 10.8 06:43:07 10° WNW 06:52:21 15° NNW 06:59:26 10° N visible
29 Jan 11.2 21:42:48 10° SSW 21:55:52 23° SSE 22:06:01 18° ESE visible
